Regional Weather Roundup
Issued by NWS Jackson, KY

Home | Current Version | Previous Version | Graphics & Text | Print | Product List | Glossary On
Versions: 1 2 3 4 5 6 7 8 9 10 11 12 13 14 15 16 17 18 19 20 21 22 23 24 25 26 27 28 29 30 31 32 33 34 35 36 37 38 39 40 41 42 43 44 45 46 47 48 49 50
000
ASUS43 KJKL 101310
RWRJKL

EAST KENTUCKY HOURLY WEATHER ROUNDUP
NATIONAL WEATHER SERVICE JACKSON KY
800 AM EST SUN DEC 10 2017

NOTE: "FAIR" INDICATES FEW OR NO CLOUDS BELOW 12,000 FEET WITH
NO SIGNIFICANT WEATHER AND/OR OBSTRUCTIONS TO VISIBILITY.

* THESE REPORTS ARE NOT UNDER NWS QUALITY CONTROL AND MAY NOT
  REPORT WEATHER SUCH AS PRECIPITATION AND FOG.

KYZ079-080-083-085-087-088-110-112-115-119-120-101400
...EASTERN KENTUCKY...

CITY           SKY/WX    TMP DP  RH WIND       PRES   REMARKS
JACKSON        CLOUDY    25  17  72 VRB5      30.17R WCI  19
LONDON         CLEAR     20  15  81 S5        30.19S WCI  13
SOMERSET*      PTCLDY    21  18  86 W5        30.24R WCI  15
MONTICELLO*    CLEAR     14  12  92 W9        30.25R WCI   2
WILLIAMSBURG*  SUNNY     21  18  86 SW3       30.22R
MIDDLESBORO*   CLEAR     24  18  78 CALM      30.22S
HARLAN APT*    CLOUDY    27  18  69 CALM      30.18R
PIKE CO APT*   CLOUDY    26  19  72 CALM      30.15R
BIG SANDY APT* CLOUDY    28  19  70 W8        30.16R WCI  20
MOREHEAD APT*  CLOUDY    25  16  68 SW8       30.19R WCI  16
$$

KYZ035-036-041-042-044-050-067-078-099-101400
...CENTRAL KENTUCKY...

CITY           SKY/WX    TMP DP  RH WIND       PRES   REMARKS
MT STERLING*   CLEAR     21  18  86 SW6       30.20R WCI  14
FLEMING/MASON* MOCLDY    20  16  83 SW7       30.17S WCI  11
DANVILLE*      CLOUDY    19  14  79 SW3       30.21R
LEXINGTON      PTCLDY    20  14  77 SW6       30.18R WCI  12
FRANKFORT      PTCLDY    21  14  74 SW7       30.17R WCI  12
LOUISVILLE     CLOUDY    26  16  65 SW5       30.19S WCI  20
LEBANON*         N/A     23  16  74 S7        30.20S WCI  15
GLASGOW*       CLEAR     18  15  88 CALM      30.24R
BOWLING GREEN  CLOUDY    22  16  78 SW5       30.26R WCI  16
$$

KYZ091>093-OHZ055-061-077-WVZ005-015-034-035-042-101400
...SOUTHERN OHIO/WEST VIRGINIA...

CITY           SKY/WX    TMP DP  RH WIND       PRES   REMARKS
COVINGTON      CLOUDY    20  16  84 SW8       30.13R WCI  10
COLUMBUS       CLOUDY    27  20  75 SW14      30.08R WCI  16
DAYTON         MOCLDY    19  16  88 SW10      30.08S WCI   7
WILMINGTON     PTCLDY    22  16  78 SW12      30.09R WCI  10
HUNTINGTON     CLOUDY    29  19  66 SW10      30.15R WCI  20
CHARLESTON     CLOUDY    29  21  72 SW9       30.14R WCI  20
PINEVILLE*       N/A     28  21  78 MISG      30.16R
BECKLEY        CLOUDY    23  17  78 W9        30.05R WCI  13
BLUEFIELD      CLOUDY    21  15  78 W12       30.04R WCI   9
LOGAN CO APT*  CLOUDY    27  19  74 CALM      30.11R
$$

VAZ002-007-008-TNZ017-027-036-066-071-101400
...SOUTHWEST VIRGINIA/EAST TENNESSEE...

CITY           SKY/WX    TMP DP  RH WIND       PRES   REMARKS
WISE*          CLOUDY    25  19  80 W6        30.10R WCI  18
JONESVILLE*    CLOUDY    27  18  69 W6        30.22R WCI  20
ABINGDON*      CLOUDY    28  20  74 W7        30.13R WCI  21
BRISTOL        CLOUDY    28  18  66 SW8       30.18R WCI  20
MORRISTOWN*    SUNNY     27  18  69 CALM      30.20R
SEVIERVILLE*   SUNNY     27  19  74 CALM      30.23R
KNOXVILLE      CLEAR     25  21  85 SW5       30.23R WCI  19
LAFOLLETTE*    SUNNY     21  19  93 CALM      30.26R
OAK RIDGE      CLEAR     24  19  81 CALM      30.25R
CROSSVILLE     CLOUDY    20  15  81 SW5       30.19R WCI  13
NASHVILLE      PTCLDY    23  18  81 S5        30.28R WCI  17
$$

...KEY TO REMARKS...
VSB - VISIBILITY IN MILES
WCI - WIND CHILL INDEX
HX  - HEAT INDEX

$$



USA.gov is the U.S. government's official web portal to all federal, state and local government web resources and services.